Regional Weather Roundup
Issued by NWS

Home | Current Version | Previous Version | Graphics & Text | Print | Product List | Glossary On
Versions: 1 2 3 4 5 6 7 8 9 10 11 12 13 14 15 16 17 18 19 20 21 22 23 24 25 26 27 28 29 30 31 32 33 34 35 36 37 38 39 40 41 42 43 44 45 46 47 48 49 50
000
ASUS43 KTOP 290559
RWRKS

WEATHER ROUNDUP FOR KANSAS
NATIONAL WEATHER SERVICE GOODLAND KS
100 AM CDT SUN MAY 29 2016

NOTE:  "FAIR" INDICATES FEW OR NO CLOUDS BELOW 12,000 FEET WITH NO
SIGNIFICANT WEATHER AND/OR OBSTRUCTIONS TO VISIBILITY.

KSZ001>006-013>018-027>032-041>047-290700-
NORTHWEST KANSAS

CITY           SKY/WX    TMP DP  RH WIND       PRES   REMARKS
GOODLAND       CLEAR     58  48  69 SW8       30.09S
6HR MIN TEMP:  56; 6HR MAX TEMP:  75;

HAYS           CLEAR     59  48  67 CALM      30.04S
HILL CITY      CLEAR     59  53  80 W3        30.04S
6HR MIN TEMP:  57; 6HR MAX TEMP:  80;

RUSSELL        CLEAR     61  56  83 S9        30.02S
6HR MIN TEMP:  61; 6HR MAX TEMP:  76;

$$

KSZ061>065-074>080-084>089-290700-
SOUTHWEST KANSAS

CITY           SKY/WX    TMP DP  RH WIND       PRES   REMARKS
DODGE CITY     CLEAR     57  53  86 SE8       30.07R
6HR MIN TEMP:  57; 6HR MAX TEMP:  78;

ELKHART          N/A     61  47  60 SE6         N/A
GARDEN CITY    CLEAR     60  50  69 SE9       30.07R
6HR MIN TEMP:  60; 6HR MAX TEMP:  80;

GREAT BEND     CLEAR     61  52  72 SE7       30.04S
LIBERAL        CLEAR     63  45  51 SE8       30.07R
$$

KSZ066>073-081>083-090>101-290700-
SOUTHEAST KANSAS

CITY           SKY/WX    TMP DP  RH WIND       PRES   REMARKS
CHANUTE        CLEAR     64  60  87 S5        30.04R
6HR MIN TEMP:  64; 6HR MAX TEMP:  78;

COFFEYVILLE    CLEAR     66  64  93 S3        30.04R
6HR MIN TEMP:  66; 6HR MAX TEMP:  80;

HUTCHINSON     CLEAR     59  57  93 CALM      30.04R
6HR MIN TEMP:  59; 6HR MAX TEMP:  80;

MEDICINE LODGE   N/A     67  53  61 E8        30.03F
NEWTON         CLEAR     63  54  72 SE6       30.07S
PARSONS        CLEAR     62  61  96 CALM      30.05R
6HR MIN TEMP:  62; 6HR MAX TEMP:  79;

WICHITA INTL   CLEAR     67  58  72 CALM      30.04R
6HR MIN TEMP:  66; 6HR MAX TEMP:  81;

WICHITA JABRA  CLEAR     63  59  87 NE5       30.04S
6HR MIN TEMP:  62; 6HR MAX TEMP:  79;

WINFIELD       CLEAR     65  60  84 S7        30.04R
6HR MIN TEMP:  65; 6HR MAX TEMP:  82;

$$

KSZ007>012-019>026-033>040-048>060-102>105-290700-
NORTHEAST KANSAS

CITY           SKY/WX    TMP DP  RH WIND       PRES   REMARKS
CONCORDIA      CLEAR     64  55  72 S10       30.02R
6HR MIN TEMP:  64; 6HR MAX TEMP:  75;

EMPORIA        CLEAR     64  59  83 SW6       30.04R
6HR MIN TEMP:  61; 6HR MAX TEMP:  76;

LAWRENCE       CLEAR     58  57  97 NE3       30.03R
6HR MIN TEMP:  58; 6HR MAX TEMP:  76;

MANHATTAN      CLEAR     60  57  89 CALM      30.02R
6HR MIN TEMP:  60; 6HR MAX TEMP:  77;

OLATHE IND     CLEAR     63  60  90 S3        30.04R
6HR MIN TEMP:  63; 6HR MAX TEMP:  76;

OLATHE EXE     CLEAR     62  59  90 CALM      30.04R
6HR MIN TEMP:  62; 6HR MAX TEMP:  74;

SALINA         CLEAR     60  58  92 S3        30.03R
6HR MIN TEMP:  60; 6HR MAX TEMP:  79;

TOPEKA BILLARD   N/A     62  59  90 CALM      30.02R
6HR MIN TEMP:  62; 6HR MAX TEMP:  77;

TOPEKA FORBES  CLEAR     62  59  90 CALM      30.02S
6HR MIN TEMP:  62; 6HR MAX TEMP:  77;

$$




USA.gov is the U.S. government's official web portal to all federal, state and local government web resources and services.